Location: Bremen
(53.0833°N, 8.8000°E)
Time: 14:25:48
(UTC+02:00)

ISS - Pass Details

Date: 04 May 2025
Orbit: 416 x 419 km, 51.6° (Epoch: 14 May)

Event Time Altitude Azimuth Distance (km) Brightness Sun altitude
Exits shadow 03:01:37 58° 215° (SW) 495 -3.8 -17.6°
Maximum altitude 03:02:01 65° 172° (S) 463 -3.9 -17.6°
Drops below altitude 10° 03:05:21 10° 91° (E) 1,497 -0.6 -17.4°
Sets 03:07:27 0° 88° (E) 2,362 0.5 -17.3°
